This demonstration page uses our WeatherBlox Daily Observations layout. Learn more.

Left ArrowRight Arrow

Hourly Observations for January 13, 2021

Temp ( °F °C ) Dew Point ( °F °C ) Humidity (%) Winds ( mph kmh ) Pressure ( in mb ) Visibility ( mi km ) Precip ( " mm )
12:53 am 00:53 Clear 45 7.2 32 0 61 61 SW 12 19 29.71 1006 10 16 0.00 0.00
1:53 am 01:53 Clear 48 8.9 33 0.6 56 56 SW 20 31 29.67 1005 10 16 0.00 0.00
2:53 am 02:53 Clear 50 10 33 0.6 52 52 SW 21 33 29.63 1004 10 16 0.00 0.00
3:53 am 03:53 Clear 53 11.7 32 0 45 45 SSW 25 41 29.57 1001 10 16 0.00 0.00
4:53 am 04:53 Cloudy 54 12.2 32 0 43 43 SW 21 33 29.53 1000 10 16 0.00 0.00
5:53 am 05:53 Mostly Clear 55 12.8 33 0.6 44 44 SW 22 35 29.48 998 10 16 0.00 0.00
6:53 am 06:53 Mostly Clear 55 12.8 33 0.6 44 44 SW 23 37 29.42 996 10 16 0.00 0.00
7:53 am 07:53 Clear 55 12.8 33 0.6 44 44 SSW 25 41 29.37 995 10 16 0.00 0.00
8:53 am 08:53 Sunny 55 12.8 33 0.6 44 44 SW 35 56 29.34 994 10 16 0.00 0.00
9:53 am 09:53 Sunny 57 13.9 33 0.6 41 41 SW 38 61 29.36 994 10 16 0.00 0.00
10:53 am 10:53 Sunny 57 13.9 35 1.7 44 44 WSW 39 63 29.36 994 10 16 0.00 0.00
11:53 am 11:53 Sunny 54 12.2 17 -8.3 23 23 WSW 37 59 29.40 996 10 16 0.00 0.00
12:53 pm 12:53 Mostly Cloudy with Haze 51 10.6 17 -8.3 26 26 W 44 70 29.43 997 3 5 0.00 0.00
1:20 pm 13:20 Hazy 48 9 21 -6 34 34 W 49 80 29.45 997 5 8 0.00 0.00
1:29 pm 13:29 Mostly Cloudy with Haze 48 8.9 17 -8.3 29 29 W 51 81 29.46 998 4 6 0.00 0.00
1:53 pm 13:53 Partly Cloudy 45 7.2 15 -9.4 30 30 W 45 72 29.49 999 10 16 0.00 0.00
8:53 pm 20:53 Clear 35 1.7 24 -4.4 64 64 W 20 31 30.02 1017 10 16 0.00 0.00
9:53 pm 21:53 Clear 33 0.6 20 -6.7 58 58 W 13 20 30.07 1018 10 16 0.00 0.00
10:53 pm 22:53 Clear 30 -1.1 20 -6.7 66 66 SW 13 20 30.11 1020 10 16 0.00 0.00
11:53 pm 23:53 Clear 25 -3.9 20 -6.7 81 81 SW 10 17 30.14 1021 10 16 0.00 0.00

Powered by AerisWeather